This demonstration page uses our WeatherBlox Daily Observations layout. Learn more.

Left ArrowRight Arrow

34.02893, -84.19858

Hourly Observations for October 7, 2022

Temp ( °F °C ) Dew Point ( °F °C ) Humidity (%) Winds ( mph kmh ) Pressure ( in mb ) Visibility ( mi km ) Precip ( " mm )
12:53 am 00:53 Clear 52 11.1 47 8.3 83 83 Calm 30.11 1020 10 16 0.00 0.00
1:53 am 01:53 Clear 50 10 47 8.3 89 89 Calm 30.10 1019 10 16 0.00 0.00
2:53 am 02:53 Clear 49 9.4 47 8.3 93 93 Calm 30.11 1020 10 16 0.00 0.00
3:53 am 03:53 Clear 50 10 47 8.3 89 89 Calm 30.10 1019 10 16 0.00 0.00
4:53 am 04:53 Clear 48 8.9 47 8.3 96 96 Calm 30.10 1019 10 16 0.00 0.00
5:53 am 05:53 Clear 47 8.3 46 7.8 97 97 Calm 30.11 1020 10 16 0.00 0.00
6:53 am 06:53 Clear 48 8.9 47 8.3 96 96 Calm 30.13 1020 10 16 0.00 0.00
7:53 am 07:53 Sunny 47 8.3 47 8.3 100 100 Calm 30.16 1021 10 16 0.00 0.00
8:53 am 08:53 Sunny 56 13.3 51 10.6 84 84 Calm 30.17 1022 8 13 0.00 0.00
9:53 am 09:53 Sunny 66 18.9 51 10.6 59 59 Calm 30.17 1022 10 16 0.00 0.00
10:53 am 10:53 Sunny 72 22.2 47 8.3 41 41 W 3 6 30.16 1021 10 16 0.00 0.00
11:53 am 11:53 Sunny 75 23.9 49 9.4 40 40 VRB 3 6 30.16 1021 10 16 0.00 0.00
12:53 pm 12:53 Sunny 79 26.1 50 10 36 36 WNW 7 11 30.14 1021 10 16 0.00 0.00
1:53 pm 13:53 Sunny 80 26.7 49 9.4 34 34 W 12 19 30.12 1020 10 16 0.00 0.00
2:53 pm 14:53 Sunny 80 26.7 49 9.4 34 34 WNW 14 22 30.09 1019 10 16 0.00 0.00
3:53 pm 15:53 Sunny 79 26.1 48 8.9 34 34 VRB 3 6 30.08 1019 10 16 0.00 0.00
4:53 pm 16:53 Sunny 80 26.7 49 9.4 34 34 NW 9 15 30.08 1019 10 16 0.00 0.00
5:53 pm 17:53 Sunny 78 25.6 47 8.3 33 33 NNW 12 19 30.09 1019 10 16 0.00 0.00
6:53 pm 18:53 Sunny 74 23.3 47 8.3 38 38 NNW 9 15 30.10 1019 10 16 0.00 0.00
7:53 pm 19:53 Clear 69 20.6 49 9.4 49 49 NNW 6 9 30.13 1020 10 16 0.00 0.00
8:53 pm 20:53 Clear 64 17.8 50 10 60 60 NNW 5 7 30.13 1020 10 16 0.00 0.00
9:53 pm 21:53 Clear 62 16.7 51 10.6 67 67 NNW 5 7 30.14 1021 10 16 0.00 0.00
10:53 pm 22:53 Clear 64 17.8 51 10.6 63 63 NNW 6 9 30.14 1021 10 16 0.00 0.00
11:53 pm 23:53 Clear 61 16.1 51 10.6 70 70 NNW 5 7 30.15 1021 10 16 0.00 0.00

Powered by AerisWeather